Change the Weather History Date:

Wednesday, August 27, 2014

  Actual Average (KGUC) Record (KGUC)
Temperature  
Mean Temperature 63 °F -  
Max Temperature 73 °F 73 °F 82 °F (2001)
Min Temperature 53 °F 40 °F 37 °F (2002)
Degree Days  
Heating Degree Days 2    
Growing Degree Days 13 (Base 50)    
Moisture  
Dew Point 45 °F    
Average Humidity 61    
Maximum Humidity 96    
Minimum Humidity 26    
Precipitation  
Precipitation 0.00 in - - ()
Sea Level Pressure  
Sea Level Pressure 30.38 in    
Wind  
Wind Speed 6 mph (WSW)    
Max Wind Speed 25 mph    
Max Gust Speed 38 mph    
Visibility 10 miles    
Events      
Averages and records for this station are not official NWS values.
T = Trace of Precipitation, MM = Missing Value Source: NWS Daily Summary

Daily Weather History Graph

Daily Weather History Graph

Search for Another Location

Airport or City:

Trip Planner

Search our weather history database for the weather conditions in past years. The results will help you decide how hot, cold, wet, or windy it might be!

Date:

Astronomy

Aug. 27, 2014 Rise Set
Actual Time 6:29 AM MDT 7:41 PM MDT
Civil Twilight 6:01 AM MDT 8:08 PM MDT
Nautical Twilight 5:28 AM MDT 8:41 PM MDT
Astronomical Twilight 4:54 AM MDT 9:15 PM MDT
Moon 8:25 AM MDT (8/27) 8:37 PM MDT (8/27)
Length of Visible Light 14h 07m
Length of Day
13h 12m
Waxing Crescent, 4% of the Moon is Illuminated
Aug 27
Waxing Crescent
Sep 2
First Quarter
Sep 8
Full
Sep 15
Last Quarter
Sep 24
New

Hourly Weather History & Observations

Time (MDT) Temp. Dew Point Humidity Pressure Visibility Wind Dir Wind Speed Gust Speed Precip Events Conditions
12:15 AM 56.3 °F 52.0 °F 85% 30.43 in 10.0 mi Calm Calm - N/A   Overcast
12:55 AM 56.7 °F 52.7 °F 87% 30.42 in 10.0 mi West 3.5 mph - N/A   Overcast
1:15 AM 56.3 °F 53.2 °F 89% 30.42 in 10.0 mi Calm Calm - N/A   Overcast
1:35 AM 55.6 °F 53.1 °F 91% 30.42 in 10.0 mi Calm Calm - N/A   Overcast
1:55 AM 55.8 °F 53.4 °F 92% 30.41 in 10.0 mi Calm Calm - N/A   Overcast
2:15 AM 55.9 °F 52.9 °F 89% 30.40 in 10.0 mi Calm Calm - N/A   Overcast
2:35 AM 56.3 °F 52.9 °F 88% 30.40 in 10.0 mi Calm Calm - N/A   Overcast
2:55 AM 55.8 °F 52.7 °F 89% 30.40 in 10.0 mi Calm Calm - N/A   Overcast
3:15 AM 56.1 °F 53.6 °F 91% 30.40 in 7.0 mi Calm Calm - N/A   Overcast
3:35 AM 55.6 °F 53.6 °F 93% 30.40 in 5.0 mi North 4.6 mph - N/A   Overcast
3:55 AM 54.9 °F 53.6 °F 96% 30.40 in 10.0 mi North 3.5 mph - N/A   Overcast
4:15 AM 54.7 °F 53.1 °F 94% 30.40 in 10.0 mi Calm Calm - N/A   Overcast
4:35 AM 54.7 °F 53.2 °F 95% 30.39 in 10.0 mi NW 3.5 mph - N/A   Overcast
4:55 AM 54.5 °F 52.2 °F 92% 30.39 in 10.0 mi NNW 3.5 mph - N/A   Overcast
5:15 AM 54.5 °F 52.0 °F 91% 30.39 in 10.0 mi Calm Calm - N/A   Overcast
5:35 AM 54.5 °F 52.0 °F 91% 30.39 in 10.0 mi Calm Calm - N/A   Overcast
5:55 AM 54.5 °F 52.0 °F 91% 30.39 in 10.0 mi Calm Calm - N/A   Overcast
6:15 AM 54.1 °F 51.8 °F 92% 30.38 in 10.0 mi NNW 6.9 mph - N/A   Overcast
6:35 AM 54.0 °F 51.8 °F 92% 30.39 in 10.0 mi NW 4.6 mph - N/A   Mostly Cloudy
6:55 AM 53.6 °F 51.1 °F 91% 30.40 in 10.0 mi Calm Calm - N/A   Mostly Cloudy
7:15 AM 54.5 °F 51.1 °F 88% 30.40 in 10.0 mi WNW 6.9 mph - N/A   Scattered Clouds
7:35 AM 54.7 °F 50.5 °F 86% 30.41 in 10.0 mi NW 3.5 mph - N/A   Scattered Clouds
7:55 AM 54.3 °F 50.9 °F 88% 30.42 in 10.0 mi North 5.8 mph - N/A   Clear
8:15 AM 55.4 °F 51.4 °F 87% 30.42 in 10.0 mi Calm Calm - N/A   Clear
8:35 AM 56.3 °F 52.3 °F 87% 30.42 in 10.0 mi North 4.6 mph - N/A   Clear
9:15 AM 59.5 °F 52.3 °F 77% 30.41 in 10.0 mi North 3.5 mph - N/A   Clear
9:35 AM 60.6 °F 52.5 °F 75% 30.41 in 10.0 mi North 3.5 mph - N/A   Clear
9:55 AM 63.5 °F 50.5 °F 63% 30.40 in 10.0 mi SSW 8.1 mph - N/A   Clear
10:15 AM 66.6 °F 47.1 °F 50% 30.40 in 10.0 mi South 10.4 mph - N/A   Clear
10:35 AM 68.2 °F 45.0 °F 43% 30.40 in 10.0 mi SW 16.1 mph 20.7 mph N/A   Clear
10:55 AM 70.0 °F 41.9 °F 36% 30.40 in 10.0 mi WSW 10.4 mph 18.4 mph N/A   Clear
11:15 AM 70.5 °F 40.6 °F 34% 30.40 in 10.0 mi WSW 6.9 mph 19.6 mph N/A   Clear
11:35 AM 69.6 °F 39.7 °F 34% 30.40 in 10.0 mi WSW 11.5 mph 21.9 mph N/A   Scattered Clouds
11:55 AM 68.2 °F 38.8 °F 34% 30.39 in 10.0 mi WSW 15.0 mph 23.0 mph N/A   Mostly Cloudy
12:15 PM 69.3 °F 39.0 °F 33% 30.39 in 10.0 mi West 17.3 mph - N/A   Scattered Clouds
12:35 PM 70.5 °F 37.2 °F 30% 30.38 in 10.0 mi WSW 16.1 mph 21.9 mph N/A   Mostly Cloudy
12:55 PM 71.8 °F 38.3 °F 30% 30.37 in 10.0 mi West 9.2 mph - N/A   Mostly Cloudy
1:15 PM 70.0 °F 37.8 °F 31% 30.37 in 10.0 mi WSW 12.7 mph 17.3 mph N/A   Mostly Cloudy
1:35 PM 72.5 °F 37.8 °F 28% 30.35 in 10.0 mi WSW 10.4 mph 20.7 mph N/A   Scattered Clouds
1:55 PM 72.3 °F 38.5 °F 29% 30.35 in 10.0 mi WSW 15.0 mph 21.9 mph N/A   Scattered Clouds
2:15 PM 67.8 °F 39.6 °F 36% 30.36 in 10.0 mi West 25.3 mph 33.4 mph N/A   Scattered Clouds
2:35 PM 68.0 °F 37.2 °F 32% 30.37 in 10.0 mi West 20.7 mph 34.5 mph N/A   Scattered Clouds
2:55 PM 70.5 °F 37.6 °F 30% 30.35 in 10.0 mi WSW 8.1 mph 21.9 mph N/A   Scattered Clouds
3:15 PM 72.7 °F 36.7 °F 27% 30.35 in 10.0 mi WSW 6.9 mph 17.3 mph N/A   Mostly Cloudy
3:35 PM 73.2 °F 36.7 °F 26% 30.33 in 10.0 mi SSE 8.1 mph - N/A   Overcast
3:55 PM 70.3 °F 43.0 °F 37% 30.32 in 10.0 mi SE 6.9 mph - N/A   Overcast
4:15 PM 69.8 °F 40.3 °F 34% 30.32 in 10.0 mi SE 6.9 mph - N/A   Overcast
4:35 PM 64.0 °F 46.6 °F 53% 30.33 in 5.0 mi South 10.4 mph - N/A   Overcast
4:55 PM 61.2 °F 42.6 °F 51% 30.37 in 10.0 mi WSW 19.6 mph 38.0 mph N/A   Overcast
5:15 PM 59.5 °F 45.1 °F 59% 30.38 in 10.0 mi SW 15.0 mph 20.7 mph N/A   Overcast
5:35 PM 59.7 °F 44.6 °F 57% 30.37 in 10.0 mi SSW 10.4 mph 16.1 mph N/A   Overcast
5:55 PM 60.4 °F 43.2 °F 53% 30.35 in 10.0 mi SW 6.9 mph - N/A   Overcast
6:15 PM 60.8 °F 44.2 °F 54% 30.35 in 10.0 mi SSW 4.6 mph - N/A   Overcast
6:35 PM 61.5 °F 42.4 °F 50% 30.35 in 10.0 mi SSW 10.4 mph - N/A   Overcast
6:55 PM 61.3 °F 40.8 °F 47% 30.35 in 10.0 mi WSW 18.4 mph 24.2 mph N/A   Overcast
7:15 PM 61.2 °F 39.2 °F 44% 30.35 in 10.0 mi WSW 18.4 mph 24.2 mph N/A   Overcast
7:35 PM 60.1 °F 38.7 °F 45% 30.36 in 10.0 mi WSW 18.4 mph 27.6 mph N/A   Mostly Cloudy
7:55 PM 59.0 °F 38.3 °F 46% 30.37 in 10.0 mi WSW 18.4 mph 26.5 mph N/A   Scattered Clouds
8:15 PM 59.0 °F 37.8 °F 45% 30.38 in 10.0 mi West 17.3 mph 21.9 mph N/A   Scattered Clouds
8:35 PM 59.4 °F 37.8 °F 45% 30.38 in 10.0 mi WSW 11.5 mph 27.6 mph N/A   Scattered Clouds
8:55 PM 58.6 °F 38.5 °F 47% 30.38 in 10.0 mi WSW 16.1 mph 24.2 mph N/A   Mostly Cloudy
9:15 PM 57.7 °F 38.5 °F 49% 30.38 in 10.0 mi WSW 15.0 mph 23.0 mph N/A   Scattered Clouds
9:35 PM 56.8 °F 38.7 °F 51% 30.38 in 10.0 mi WSW 16.1 mph 21.9 mph N/A   Scattered Clouds
9:55 PM 57.2 °F 38.3 °F 49% 30.38 in 10.0 mi WSW 13.8 mph 25.3 mph N/A   Clear
10:15 PM 56.7 °F 38.7 °F 51% 30.38 in 10.0 mi WSW 12.7 mph 19.6 mph N/A   Clear
10:35 PM 55.6 °F 39.2 °F 54% 30.37 in 10.0 mi WSW 13.8 mph 19.6 mph N/A   Clear
10:55 PM 55.6 °F 38.8 °F 53% 30.37 in 10.0 mi WSW 15.0 mph 25.3 mph N/A   Clear
11:55 PM 55.4 °F 37.9 °F 52% 30.37 in 10.0 mi WSW 13.8 mph - N/A   Clear